Weather History for Wildwood, NJ

Change the Weather History Date:

Sunday, May 12, 2013

  Actual Average Record
Temperature  
Mean Temperature 62 °F -  
Max Temperature 66 °F 66 °F 84 °F (2001)
Min Temperature 57 °F 51 °F 44 °F (2008)
Degree Days  
Heating Degree Days 4    
Growing Degree Days 12 (Base 50)    
Moisture  
Dew Point 45 °F    
Average Humidity 58    
Maximum Humidity 88    
Minimum Humidity 30    
Precipitation  
Precipitation 0.09 in - - ()
Sea Level Pressure  
Sea Level Pressure 29.82 in    
Wind  
Wind Speed 7 mph (WNW)    
Max Wind Speed 20 mph    
Max Gust Speed 28 mph    
Visibility 10 miles    
Events      
Averages and records for this station are not official NWS values.
T = Trace of Precipitation, MM = Missing Value Source: NWS Daily Summary

Daily Weather History Graph

Daily Weather History Graph

Search for Another Location

Airport:

Trip Planner

Search our weather history database for the weather conditions in past years. The results will help you decide how hot, cold, wet, or windy it might be!

Date:

Astronomy

May. 12, 2013 Rise Set
Actual Time 5:49 AM EDT 8:03 PM EDT
Civil Twilight 5:19 AM EDT 8:33 PM EDT
Nautical Twilight 4:43 AM EDT 9:09 PM EDT
Astronomical Twilight 4:03 AM EDT 9:49 PM EDT
Moon 7:42 AM EDT (5/12) 10:28 PM EDT (5/12)
Length of Visible Light 15h 13m
Length of Day
14h 13m
Waxing Crescent, 6% of the Moon is Illuminated
May 12
Waxing Crescent
May 18
First Quarter
May 25
Full
May 31
Last Quarter
Jun 8
New

Hourly Weather History & Observations

Time (EDT) Temp. Dew Point Humidity Pressure Visibility Wind Dir Wind Speed Gust Speed Precip Events Conditions
12:15 AM 62.6 °F 57.2 °F 82% 29.75 in - Calm Calm - N/A   Scattered Clouds
12:35 AM 62.6 °F 57.2 °F 82% 29.75 in - South 3.5 mph - N/A   Clear
12:55 AM 62.6 °F 57.2 °F 82% 29.74 in - Calm Calm - N/A   Clear
1:15 AM 60.8 °F 57.2 °F 88% 29.73 in - West 3.5 mph - N/A   Unknown
1:35 AM 62.6 °F 57.2 °F 82% 29.72 in - WSW 3.5 mph - N/A   Mostly Cloudy
1:55 AM 62.6 °F 57.2 °F 82% 29.72 in - SW 3.5 mph - N/A   Overcast
2:15 AM 62.6 °F 57.2 °F 82% 29.75 in - WSW 12.7 mph - 0.01 in   Overcast
2:35 AM 62.6 °F 57.2 °F 82% 29.74 in - West 4.6 mph - 0.05 in   Overcast
2:55 AM 62.6 °F 57.2 °F 82% 29.74 in - West 4.6 mph - 0.06 in   Overcast
3:15 AM 60.8 °F 57.2 °F 88% 29.74 in - Calm Calm - 0.01 in   Unknown
3:35 AM 60.8 °F 57.2 °F 88% 29.73 in - WNW 3.5 mph - 0.02 in   Unknown
3:55 AM 62.6 °F 59.0 °F 88% 29.73 in - NW 3.5 mph - 0.02 in   Unknown
4:15 AM 62.6 °F 59.0 °F 88% 29.74 in - North 5.8 mph - N/A   Unknown
4:35 AM 60.8 °F 57.2 °F 88% 29.74 in - NW 3.5 mph - N/A   Unknown
4:55 AM 60.8 °F 57.2 °F 88% 29.76 in - NNW 4.6 mph - N/A   Unknown
5:35 AM 60.8 °F 55.4 °F 82% 29.75 in - Calm Calm - N/A   Scattered Clouds
5:55 AM 60.8 °F 55.4 °F 82% 29.76 in - WNW 3.5 mph - N/A   Mostly Cloudy
6:15 AM 59.0 °F 55.4 °F 88% 29.76 in - NW 3.5 mph - N/A   Unknown
6:35 AM 60.8 °F 55.4 °F 82% 29.78 in - WNW 3.5 mph - N/A   Mostly Cloudy
6:55 AM 60.8 °F 55.4 °F 82% 29.77 in - NNW 4.6 mph - N/A   Overcast
7:15 AM 60.8 °F 53.6 °F 77% 29.76 in - North 5.8 mph - 0.01 in   Mostly Cloudy
7:35 AM 60.8 °F 53.6 °F 77% 29.77 in - NW 4.6 mph - 0.01 in   Mostly Cloudy
7:55 AM 60.8 °F 51.8 °F 72% 29.78 in - NW 6.9 mph 16.1 mph 0.01 in   Overcast
8:15 AM 60.8 °F 53.6 °F 77% 29.79 in - NNW 4.6 mph - N/A   Overcast
8:35 AM 60.8 °F 53.6 °F 77% 29.79 in - North 5.8 mph - N/A   Overcast
8:55 AM 60.8 °F 51.8 °F 72% 29.79 in - North 6.9 mph - N/A   Overcast
9:15 AM 60.8 °F 51.8 °F 72% 29.79 in - NNW 3.5 mph - N/A   Overcast
9:35 AM 60.8 °F 50.0 °F 68% 29.79 in - NNW 4.6 mph - N/A   Overcast
9:55 AM 60.8 °F 50.0 °F 68% 29.79 in - NW 4.6 mph - N/A   Mostly Cloudy
10:15 AM 60.8 °F 50.0 °F 68% 29.80 in - WNW 6.9 mph - N/A   Mostly Cloudy
10:35 AM 62.6 °F 51.8 °F 68% 29.80 in - WNW 8.1 mph 16.1 mph N/A   Mostly Cloudy
10:55 AM 64.4 °F 51.8 °F 64% 29.79 in - WNW 11.5 mph 19.6 mph N/A   Clear
11:15 AM 64.4 °F 53.6 °F 68% 29.80 in - WNW 11.5 mph - N/A   Scattered Clouds
11:35 AM 64.4 °F 53.6 °F 68% 29.80 in - WNW 12.7 mph 19.6 mph N/A   Scattered Clouds
11:55 AM 64.4 °F 51.8 °F 64% 29.80 in - NW 10.4 mph 17.3 mph N/A   Clear
12:15 PM 64.4 °F 50.0 °F 59% 29.80 in - WNW 10.4 mph 18.4 mph N/A   Scattered Clouds
12:35 PM 64.4 °F 51.8 °F 64% 29.80 in - West 17.3 mph 20.7 mph N/A   Scattered Clouds
12:55 PM 64.4 °F 50.0 °F 59% 29.80 in - West 16.1 mph 21.9 mph N/A   Partly Cloudy
1:15 PM 64.4 °F 48.2 °F 56% 29.80 in - WNW 17.3 mph 21.9 mph N/A   Scattered Clouds
1:35 PM 66.2 °F 46.4 °F 49% 29.80 in - WNW 15.0 mph 24.2 mph N/A   Partly Cloudy
1:55 PM 66.2 °F 44.6 °F 46% 29.80 in - West 15.0 mph 25.3 mph N/A   Clear
2:15 PM 64.4 °F 42.8 °F 45% 29.81 in - West 17.3 mph 26.5 mph N/A   Clear
2:35 PM 64.4 °F 42.8 °F 45% 29.81 in - WNW 15.0 mph 24.2 mph N/A   Clear
2:55 PM 64.4 °F 42.8 °F 45% 29.81 in - West 18.4 mph 26.5 mph N/A   Clear
3:15 PM 64.4 °F 39.2 °F 40% 29.81 in - West 13.8 mph 27.6 mph N/A   Clear
3:35 PM 64.4 °F 37.4 °F 37% 29.81 in - WNW 16.1 mph 25.3 mph N/A   Partly Cloudy
3:55 PM 64.4 °F 35.6 °F 34% 29.82 in - West 15.0 mph 27.6 mph N/A   Clear
4:15 PM 64.4 °F 35.6 °F 34% 29.82 in - WNW 13.8 mph 25.3 mph N/A   Clear
4:35 PM 64.4 °F 35.6 °F 34% 29.83 in - West 13.8 mph 26.5 mph N/A   Clear
4:55 PM 64.4 °F 35.6 °F 34% 29.84 in - West 18.4 mph 23.0 mph N/A   Clear
5:15 PM 62.6 °F 33.8 °F 34% 29.85 in - West 13.8 mph 26.5 mph N/A   Clear
5:35 PM 62.6 °F 33.8 °F 34% 29.85 in - West 19.6 mph 26.5 mph N/A   Clear
5:55 PM 62.6 °F 30.2 °F 30% 29.86 in - West 13.8 mph 21.9 mph N/A   Clear
6:15 PM 62.6 °F 32.0 °F 32% 29.87 in - West 16.1 mph 23.0 mph N/A   Clear
6:35 PM 62.6 °F 32.0 °F 32% 29.87 in - WNW 13.8 mph 21.9 mph N/A   Clear
6:55 PM 60.8 °F 32.0 °F 34% 29.88 in - WNW 11.5 mph 20.7 mph N/A   Clear
7:15 PM 60.8 °F 30.2 °F 31% 29.90 in - WNW 6.9 mph 18.4 mph N/A   Partly Cloudy
7:35 PM 60.8 °F 32.0 °F 34% 29.90 in - WNW 12.7 mph 20.7 mph N/A   Partly Cloudy
7:55 PM 60.8 °F 32.0 °F 34% 29.91 in - WNW 11.5 mph 20.7 mph N/A   Clear
8:15 PM 59.0 °F 32.0 °F 36% 29.91 in - WNW 11.5 mph 21.9 mph N/A   Clear
8:35 PM 59.0 °F 30.2 °F 34% 29.92 in - WNW 10.4 mph 19.6 mph N/A   Clear
8:55 PM 59.0 °F 28.4 °F 31% 29.93 in - WNW 12.7 mph 23.0 mph N/A   Clear
9:15 PM 57.2 °F 28.4 °F 33% 29.95 in - WNW 11.5 mph 21.9 mph N/A   Clear
9:35 PM 57.2 °F 28.4 °F 33% 29.95 in 10.0 mi NW 13.8 mph 21.9 mph N/A   Clear
9:55 PM 57.2 °F 28.4 °F 33% 29.97 in 10.0 mi WNW 12.7 mph 20.7 mph N/A   Clear
10:15 PM 57.2 °F 28.4 °F 33% 29.97 in 10.0 mi WNW 15.0 mph 21.9 mph N/A   Clear
10:35 PM 57.2 °F 28.4 °F 33% 29.97 in 10.0 mi WNW 12.7 mph 23.0 mph N/A   Clear
10:55 PM 57.2 °F 30.2 °F 36% 29.98 in 10.0 mi NW 10.4 mph 21.9 mph N/A   Clear
11:15 PM 57.2 °F 30.2 °F 36% 29.98 in 10.0 mi WNW 10.4 mph 19.6 mph N/A   Clear
11:35 PM 57.2 °F 30.2 °F 36% 29.99 in 10.0 mi WNW 11.5 mph 20.7 mph N/A   Clear
11:55 PM 57.2 °F 28.4 °F 33% 29.99 in 10.0 mi WNW 12.7 mph 20.7 mph N/A   Clear